+ View the NASA Portal
+ Center for Near-Earth Object Studies
IMPORTANT:
The SSD Announcement email list is now available. Major changes are coming in the near future, including possible hostname and/or URL changes. To be notified of such changes, subscribe to this email list.
Please visit
this page
for more details.
Don't show this message again
JPL Small-Body Database Browser
Search:
[
help
]
413836 (2006 SK31)
Classification:
Main-belt Asteroid
SPK-ID:
2413836
[
Ephemeris
|
Orbit Diagram
|
Orbital Elements
|
Mission Design
|
Physical Parameters
|
Discovery Circumstances
]
[ show orbit diagram ]
Orbital Elements at Epoch 2458600.5 (2019-Apr-27.0) TDB
Reference:
JPL 12
(heliocentric ecliptic J2000)
Element
Value
Uncertainty (1-sigma)
Units
e
.2656673067060473
6.2974e-08
a
2.418463195293094
3.3056e-08
au
q
1.775956591831876
1.4018e-07
au
i
2.103538208582239
7.9094e-06
deg
node
340.9855974369055
0.00021263
deg
peri
67.43827227692326
0.00021533
deg
M
92.91526345660093
3.6486e-05
deg
t
p
2458245.937980273250
(2018-May-07.43798027)
0.00013289
TDB
period
1373.749827026531
3.76
2.8165e-05
7.711e-08
d
yr
n
.2620564479190631
5.3728e-09
deg/d
Q
3.060969798754311
4.1838e-08
au
Orbit Determination Parameters
# obs. used (total)
199
data-arc span
4565 days (12.50 yr)
first obs. used
2006-08-28
last obs. used
2019-02-26
planetary ephem.
DE431
SB-pert. ephem.
SB431-N16
condition code
0
norm. resid. RMS
.6213
source
ORB
producer
Otto Matic
solution date
2019-Jul-14 07:48:04
Additional Information
Earth MOID
= .786851 au
Jupiter MOID
= 2.34058 au
T_jup
= 3.465
[ show covariance matrix ]
[
Ephemeris
|
Orbit Diagram
|
Orbital Elements
|
Mission Design
|
Physical Parameters
|
Discovery Circumstances
]
Physical Parameter Table
Parameter
Symbol
Value
Units
Sigma
Reference
Notes
absolute magnitude
H
17.6
n/a
MPO419034
413836 (2006 SK31)
Discovered 2006-Sep-17 by LINEAR at Socorro
Reference:
Last Updated:
2014-11-10
[
Ephemeris
|
Orbit Diagram
|
Orbital Elements
|
Mission Design
|
Physical Parameters
|
Discovery Circumstances
]
2019-Dec-10 06:26 UT
(server date/time)
Site Manager:
Ryan S. Park
Webmaster
:
Alan B. Chamberlin